[[{"header":{"parameterUnit":"m.s-1","parameterCategory":1,"la1":30.2991,"la2":30.254,"lo1":-89.0895,"lo2":-89.0444,"dy":0.0017,"dx":0.0017,"nx":28,"ny":28,"refTime":"2025-08-30T03:00:00:Z","depth":0,"parameterNumber":2,"parameterNumberName":"U-component_of_WINDS"},"data":[0,0,0,0,0,0,0,0,0,0,0,0,0,0,0,0,0,0,0,0,0,0,0,0,0,0,0,0,0,0,0,0,0,0,0,0,0,0,0,0,0,0,0,0,0,0,0,0,0,0,0,0,0,0,0,0,0,0,-1.0691,-1.0691,0,-1.0695,-1.0695,-1.0695,-1.0713,-1.0713,-1.0713,-1.0714,-1.0717,-1.0717,-1.0717,0,0,0,0,0,0,0,0,0,0,0,0,0,-1.0697,-1.0697,-1.0691,-1.0691,-1.0691,-1.0695,-1.0695,-1.0695,-1.0712,-1.0713,-1.0713,-1.0714,-1.0717,-1.0717,-1.0717,0,0,0,0,0,0,0,0,0,0,0,0,0,-1.0697,-1.0696,-1.0691,-1.07,-1.0701,-1.0695,-1.0695,-1.0695,-1.0712,-1.0713,-1.0714,-1.0714,-1.0717,-1.0717,-1.0717,-1.0702,0,0,-1.0715,-1.0715,0,0,0,0,0,0,0,0,-1.0697,-1.0697,-1.0699,-1.0699,-1.07,-1.0704,-1.0699,-1.0698,-1.0712,-1.0708,-1.0714,-1.0714,-1.0712,-1.0712,-1.0712,-1.0702,-1.0702,-1.0715,-1.0715,-1.0715,-1.0715,0,0,0,0,0,0,0,-1.0697,-1.0697,-1.0693,-1.0699,-1.07,-1.0704,-1.0704,-1.0698,-1.0707,-1.0708,-1.071,-1.071,-1.0713,-1.0712,-1.0712,-1.0702,-1.0715,-1.0715,-1.0715,-1.0714,-1.0681,-1.068,0,0,0,0,0,0,-1.0696,-1.0696,-1.0692,-1.0693,-1.07,-1.0703,-1.0704,-1.0702,-1.0707,-1.0708,-1.0709,-1.0711,-1.0712,-1.0712,-1.0712,-1.0695,-1.0715,-1.0714,-1.0714,-1.0682,-1.0681,-1.068,0,0,0,0,0,0,-1.0696,-1.0695,-1.0692,-1.0695,-1.0695,-1.0702,-1.07,-1.0702,-1.0701,-1.0708,-1.0709,-1.0707,-1.0713,-1.0713,-1.0704,-1.0695,-1.0714,-1.0714,-1.0682,-1.0681,-1.0681,-1.0661,0,0,0,0,0,0,-1.0696,-1.0695,-1.069,-1.0695,-1.0695,-1.0684,-1.07,-1.0702,-1.0701,-1.0702,-1.0706,-1.0707,-1.0713,-1.0705,-1.0704,-1.0695,-1.0713,-1.0683,-1.0682,-1.0681,-1.0662,-1.0659,-1.0657,0,0,0,0,0,-1.0696,-1.0684,-1.0689,-1.0689,-1.0688,-1.0684,-1.0684,-1.0692,-1.07,-1.0694,-1.0699,-1.0707,-1.0697,-1.0704,-1.0703,-1.0694,-1.0684,-1.0682,-1.0681,-1.0664,-1.066,-1.0657,0,0,0,0,0,0,-1.0677,-1.0684,-1.0691,-1.068,-1.0681,-1.0687,-1.068,-1.0688,-1.0686,-1.0688,-1.0698,-1.0698,-1.0689,-1.0691,-1.0698,-1.068,-1.0692,-1.069,-1.0679,-1.0675,-1.0673,-1.0672,-1.0713,0,0,0,0,0,-1.0671,-1.0667,-1.0674,-1.0664,-1.0665,-1.0672,-1.0671,-1.0677,-1.0678,-1.0679,-1.0682,-1.0683,-1.0681,-1.0678,-1.0676,-1.0663,-1.0664,-1.0657,-1.0654,-1.0652,-1.065,-1.0643,-1.0639,-1.0676,-1.0676,-1.0676,0,0,-1.066,-1.0664,-1.066,-1.066,-1.0662,-1.0658,-1.0672,-1.0667,-1.0664,-1.0678,-1.067,-1.0673,-1.0675,-1.0664,-1.066,-1.0666,-1.064,-1.065,-1.0648,-1.0647,-1.0641,-1.0637,-1.0634,-1.0675,-1.0675,-1.0675,0,0,-1.0636,-1.0639,-1.0631,-1.0632,-1.0635,-1.064,-1.0638,-1.0643,-1.0646,-1.0638,-1.0649,-1.0645,-1.064,-1.0641,-1.0641,-1.0619,-1.0626,-1.0618,-1.0603,-1.0596,-1.0593,-1.0591,-1.0582,-1.0579,-1.0616,-1.0616,-1.0616,0,-1.0621,-1.0615,-1.0625,-1.0619,-1.0619,-1.0632,-1.0624,-1.0625,-1.0626,-1.0626,-1.0633,-1.0627,-1.0629,-1.0618,-1.0613,-1.0613,-1.061,-1.0617,-1.0593,-1.059,-1.0588,-1.058,-1.0577,-1.0615,-1.0615,-1.0615,-1.0615,0,-1.0597,-1.0592,-1.0585,-1.0587,-1.0586,-1.0579,-1.0587,-1.0585,-1.0592,-1.0596,-1.0589,-1.0592,-1.059,-1.0589,-1.0595,-1.0579,-1.0583,-1.0591,-1.0603,-1.0584,-1.0576,-1.0573,-1.0613,-1.0614,-1.0614,-1.0614,0,0,-1.056,-1.0568,-1.0565,-1.0566,-1.057,-1.0567,-1.0561,-1.056,-1.0557,-1.0559,-1.0553,-1.0549,-1.0557,-1.0557,-1.0563,-1.0557,-1.0539,-1.0567,-1.0567,-1.056,-1.0521,-1.0514,-1.051,-1.0545,-1.0544,-1.0544,-1.0521,0,-1.0537,-1.0526,-1.0535,-1.0523,-1.0519,-1.0532,-1.0526,-1.0529,-1.0533,-1.053,-1.0535,-1.0532,-1.0543,-1.0543,-1.0538,-1.0542,-1.0531,-1.0544,-1.0539,-1.0539,-1.0537,-1.0507,-1.0499,-1.0477,-1.0518,-1.0518,-1.0517,0,-1.0508,-1.0508,-1.0495,-1.0501,-1.05,-1.0495,-1.0495,-1.0492,-1.0495,-1.0498,-1.0499,-1.0507,-1.0501,-1.0513,-1.0505,-1.0514,-1.0512,-1.0514,-1.0514,-1.0512,-1.0526,-1.0503,-1.047,-1.0466,-1.0513,-1.0513,-1.0514,0,-1.0481,-1.0478,-1.047,-1.0471,-1.0478,-1.0474,-1.0476,-1.048,-1.0479,-1.0479,-1.0478,-1.0478,-1.0477,-1.0476,-1.0484,-1.0493,-1.0474,-1.0488,-1.0477,-1.0476,-1.0471,-1.0471,-1.0436,-1.0472,-1.0472,-1.0472,-1.0472,0,-1.0454,-1.0445,-1.0458,-1.0453,-1.0444,-1.0455,-1.0446,-1.045,-1.0453,-1.0449,-1.0461,-1.0456,-1.0468,-1.0464,-1.0471,-1.0462,-1.0462,-1.0465,-1.0466,-1.0463,-1.0462,-1.0461,-1.0462,-1.0471,-1.0472,-1.0472,-1.0472,0,-1.0422,-1.043,-1.0422,-1.043,-1.0431,-1.0424,-1.043,-1.0426,-1.0432,-1.0426,-1.0426,-1.0434,-1.0431,-1.044,-1.0438,-1.0442,-1.043,-1.0435,-1.0429,-1.043,-1.0418,-1.0419,-1.038,-1.0375,-1.0415,-1.0415,-1.0415,0,-1.0403,-1.0397,-1.0404,-1.0402,-1.0404,-1.0401,-1.04,-1.0411,-1.041,-1.0413,-1.0408,-1.0406,-1.0405,-1.04,-1.0405,-1.0404,-1.0408,-1.0395,-1.0408,-1.0405,-1.0407,-1.0407,-1.0406,-1.0392,-1.0391,-1.0391,-1.039,0,-1.0368,-1.0373,-1.0372,-1.0372,-1.0371,-1.0371,-1.0373,-1.0371,-1.0382,-1.038,-1.0377,-1.0377,-1.0375,-1.0373,-1.0373,-1.0376,-1.0385,-1.0387,-1.0384,-1.0379,-1.0376,-1.0377,-1.042,-1.0387,-1.0387,-1.0387,-1.0388,-1.0388,-1.0342,-1.0337,-1.0341,-1.0339,-1.0341,-1.0343,-1.0339,-1.0344,-1.0342,-1.0342,-1.0349,-1.0345,-1.0348,-1.035,-1.0351,-1.0348,-1.0354,-1.035,-1.0349,-1.0348,-1.0345,-1.0378,-1.0348,-1.0348,-1.0349,-1.0349,-1.0349,0,-1.0307,-1.0311,-1.0309,-1.0311,-1.0309,-1.0319,-1.0321,-1.0319,-1.0315,-1.0318,-1.0317,-1.0314,-1.0312,-1.0318,-1.0317,-1.0314,-1.0318,-1.0313,-1.0312,-1.0313,-1.034,-1.0342,-1.031,-1.031,-1.031,-1.031,-1.031,-1.031,-1.0289,-1.0281,-1.0286,-1.0279,-1.0283,-1.028,-1.028,-1.0281,-1.0283,-1.0279,-1.0278,-1.0283,-1.0287,-1.0286,-1.0285,-1.0287,-1.0285,-1.0279,-1.0282,-1.0307,-1.0311,-1.0315,-1.0316,-1.0279,-1.0279,-1.0255,-1.0255,-1.0254]},{"header":{"parameterUnit":"m.s-1","parameterCategory":1,"la1":30.2991,"la2":30.254,"lo1":-89.0895,"lo2":-89.0444,"dy":0.0017,"dx":0.0017,"nx":28,"ny":28,"refTime":"2025-08-30T03:00:00:Z","depth":0,"parameterNumber":3,"parameterNumberName":"V-component_of_WINDS"},"data":[0,0,0,0,0,0,0,0,0,0,0,0,0,0,0,0,0,0,0,0,0,0,0,0,0,0,0,0,0,0,0,0,0,0,0,0,0,0,0,0,0,0,0,0,0,0,0,0,0,0,0,0,0,0,0,0,0,0,-0.7466,-0.7467,0,-0.7493,-0.7494,-0.7494,-0.7514,-0.7514,-0.7515,-0.7515,-0.7541,-0.7542,-0.7542,0,0,0,0,0,0,0,0,0,0,0,0,0,-0.7434,-0.7434,-0.7466,-0.7467,-0.7467,-0.7493,-0.7494,-0.7494,-0.7514,-0.7514,-0.7515,-0.7515,-0.7541,-0.7542,-0.7542,0,0,0,0,0,0,0,0,0,0,0,0,0,-0.7453,-0.7434,-0.7466,-0.748,-0.7482,-0.7493,-0.7494,-0.7494,-0.7514,-0.7514,-0.7515,-0.7515,-0.7541,-0.7542,-0.7543,-0.7542,0,0,-0.7545,-0.7545,0,0,0,0,0,0,0,0,-0.7452,-0.7454,-0.7478,-0.7479,-0.7481,-0.7501,-0.7492,-0.751,-0.7514,-0.7502,-0.7515,-0.7515,-0.7528,-0.7529,-0.7534,-0.7543,-0.7544,-0.7545,-0.7546,-0.7546,-0.7546,0,0,0,0,0,0,0,-0.745,-0.7453,-0.7477,-0.7478,-0.748,-0.7486,-0.7489,-0.7495,-0.7513,-0.7503,-0.7504,-0.7507,-0.7528,-0.7533,-0.7535,-0.7545,-0.7545,-0.7546,-0.7546,-0.7547,-0.7557,-0.7557,0,0,0,0,0,0,-0.7447,-0.7452,-0.7476,-0.7478,-0.7467,-0.7486,-0.7489,-0.7494,-0.7513,-0.7516,-0.7507,-0.7508,-0.7532,-0.7534,-0.7536,-0.7538,-0.7546,-0.7547,-0.7547,-0.7558,-0.7557,-0.7557,0,0,0,0,0,0,-0.7446,-0.7449,-0.7475,-0.7465,-0.7469,-0.7486,-0.7491,-0.7494,-0.7499,-0.7516,-0.7519,-0.7509,-0.7532,-0.7535,-0.7541,-0.7539,-0.7547,-0.7548,-0.7558,-0.7558,-0.7557,-0.7541,0,0,0,0,0,0,-0.7445,-0.7448,-0.7448,-0.7465,-0.7469,-0.7479,-0.7491,-0.7495,-0.7501,-0.7502,-0.7518,-0.7521,-0.7532,-0.754,-0.7542,-0.754,-0.7548,-0.7558,-0.7558,-0.7557,-0.7542,-0.754,-0.7539,0,0,0,0,0,-0.7444,-0.7442,-0.7448,-0.7451,-0.7469,-0.7479,-0.7482,-0.7495,-0.75,-0.75,-0.7512,-0.7521,-0.7539,-0.754,-0.7543,-0.7541,-0.7558,-0.7558,-0.7557,-0.7542,-0.7541,-0.7539,0,0,0,0,0,0,-0.7423,-0.7444,-0.7451,-0.7454,-0.7465,-0.7483,-0.7483,-0.7492,-0.7501,-0.7502,-0.7518,-0.7522,-0.7527,-0.7535,-0.7536,-0.7543,-0.755,-0.755,-0.7538,-0.7536,-0.7534,-0.7533,-0.7549,0,0,0,0,0,-0.7419,-0.7425,-0.7443,-0.7444,-0.7449,-0.7465,-0.747,-0.748,-0.7491,-0.7496,-0.7507,-0.7518,-0.7527,-0.7532,-0.754,-0.7543,-0.7548,-0.7544,-0.7542,-0.7541,-0.7541,-0.7545,-0.7544,-0.7556,-0.7556,-0.7556,0,0,-0.741,-0.7422,-0.7425,-0.744,-0.745,-0.7457,-0.7469,-0.7475,-0.748,-0.7496,-0.7504,-0.7513,-0.7526,-0.7531,-0.7534,-0.7538,-0.7539,-0.754,-0.7539,-0.754,-0.7545,-0.7544,-0.7543,-0.7556,-0.7556,-0.7556,0,0,-0.7398,-0.7407,-0.741,-0.742,-0.7434,-0.7445,-0.7446,-0.7463,-0.747,-0.7478,-0.7491,-0.7497,-0.7511,-0.7521,-0.7527,-0.7521,-0.7531,-0.7524,-0.7516,-0.752,-0.7519,-0.7518,-0.7518,-0.7517,-0.7524,-0.7524,-0.7523,0,-0.7385,-0.7396,-0.7411,-0.7417,-0.7424,-0.744,-0.7444,-0.7452,-0.7468,-0.7473,-0.7477,-0.7497,-0.7506,-0.7515,-0.7514,-0.7518,-0.7521,-0.7522,-0.7518,-0.7518,-0.7517,-0.7517,-0.7516,-0.7523,-0.7523,-0.7523,-0.7523,0,-0.738,-0.7388,-0.7389,-0.7405,-0.7412,-0.7417,-0.7433,-0.7439,-0.7448,-0.7459,-0.7468,-0.748,-0.7493,-0.7496,-0.7504,-0.7506,-0.7508,-0.7515,-0.7522,-0.7515,-0.7515,-0.7515,-0.7521,-0.7522,-0.7522,-0.7522,0,0,-0.7355,-0.7381,-0.7381,-0.739,-0.7408,-0.7414,-0.7421,-0.7433,-0.7439,-0.745,-0.7456,-0.7468,-0.7476,-0.7483,-0.7493,-0.7497,-0.7493,-0.7503,-0.7504,-0.7502,-0.7498,-0.7494,-0.7493,-0.75,-0.75,-0.75,-0.7497,0,-0.7346,-0.7359,-0.7373,-0.7381,-0.7389,-0.7405,-0.7411,-0.7423,-0.7434,-0.7442,-0.7454,-0.7463,-0.7471,-0.7476,-0.748,-0.7493,-0.7493,-0.7493,-0.7506,-0.7507,-0.7503,-0.7493,-0.7487,-0.7485,-0.7497,-0.7497,-0.7497,0,-0.7338,-0.735,-0.7359,-0.7378,-0.7382,-0.7387,-0.7401,-0.7409,-0.7423,-0.7431,-0.7441,-0.7452,-0.746,-0.7467,-0.7479,-0.7479,-0.7486,-0.7493,-0.7493,-0.7495,-0.7502,-0.7495,-0.7484,-0.7484,-0.7497,-0.7497,-0.7497,0,-0.7321,-0.7338,-0.7347,-0.7353,-0.7376,-0.7379,-0.7389,-0.7404,-0.7411,-0.7423,-0.7429,-0.7441,-0.7449,-0.7459,-0.7473,-0.7476,-0.7485,-0.7492,-0.7492,-0.7492,-0.7493,-0.7493,-0.7484,-0.7496,-0.7496,-0.7496,-0.7496,0,-0.731,-0.7315,-0.7339,-0.7344,-0.7351,-0.7368,-0.7374,-0.7385,-0.7399,-0.7407,-0.7421,-0.7428,-0.7447,-0.7457,-0.7468,-0.7478,-0.7481,-0.7488,-0.7491,-0.7487,-0.7486,-0.7491,-0.7492,-0.7496,-0.7496,-0.7496,-0.7496,0,-0.7292,-0.7308,-0.7318,-0.7339,-0.7345,-0.7349,-0.7367,-0.7373,-0.7385,-0.7395,-0.7398,-0.7417,-0.743,-0.7446,-0.7462,-0.7471,-0.7479,-0.7483,-0.7474,-0.7476,-0.7476,-0.7476,-0.747,-0.7471,-0.7482,-0.7482,-0.7482,0,-0.7285,-0.7289,-0.7311,-0.7318,-0.7327,-0.7338,-0.7346,-0.7363,-0.7371,-0.7389,-0.7393,-0.7407,-0.7419,-0.7438,-0.7453,-0.7467,-0.7472,-0.7469,-0.7474,-0.7471,-0.7474,-0.7473,-0.7474,-0.7468,-0.7468,-0.7468,-0.7467,0,-0.7271,-0.7279,-0.729,-0.7305,-0.7315,-0.7327,-0.734,-0.7344,-0.7365,-0.7373,-0.7386,-0.7395,-0.7414,-0.7427,-0.7443,-0.7454,-0.7464,-0.7466,-0.7467,-0.7463,-0.7458,-0.7462,-0.7472,-0.7466,-0.7466,-0.7466,-0.7466,-0.7466,-0.7259,-0.7264,-0.7281,-0.7294,-0.7306,-0.7318,-0.7325,-0.7339,-0.735,-0.7367,-0.7376,-0.7389,-0.7406,-0.7428,-0.7438,-0.7449,-0.7453,-0.7454,-0.7454,-0.7455,-0.7454,-0.7456,-0.7452,-0.7452,-0.7452,-0.7452,-0.7452,0,-0.7247,-0.7259,-0.727,-0.7289,-0.7299,-0.7309,-0.7324,-0.7332,-0.7343,-0.7358,-0.737,-0.7386,-0.7399,-0.7416,-0.7432,-0.7437,-0.7443,-0.7441,-0.7441,-0.7443,-0.7449,-0.7447,-0.7436,-0.7436,-0.7436,-0.7436,-0.7436,-0.7436,-0.7242,-0.7252,-0.7263,-0.728,-0.7292,-0.7305,-0.7313,-0.7325,-0.7337,-0.7354,-0.7366,-0.7377,-0.7393,-0.741,-0.7423,-0.7428,-0.7433,-0.743,-0.7436,-0.7441,-0.7443,-0.7444,-0.7442,-0.7431,-0.7431,-0.743,-0.743,-0.743]}]]